Location: Chaumontel
(49.1247°N, 2.4324°E)
Time: 05:27:16
(UTC+00:00)

COSMOS 2428 - Pass Details

Date: 05 August 2024
Orbit: 842 x 857 km, 70.9° (Epoch: 08 September)

Event Time Altitude Azimuth Distance (km) Brightness Sun altitude
Exits shadow 03:11:49 12° 203° (SSW) 2,349 4.5 -11.1°
Maximum altitude 03:17:10 83° 116° (ESE) 861 2.8 -10.5°
Drops below altitude 10° 03:22:54 10° 30° (NNE) 2,487 6.5 -9.8°
Sets 03:25:22 0° 30° (NNE) 3,429 7.4 -9.4°
